Total_Precipitation_Accumulation
1.52 2.00 1.22 1.58 1.64 2.29 2.48 1.39 1.24 0.70 0.26 0.07 0.00 0.00 0.00 0.00 0.00 0.00 0.00 0.00 0.00 0.00 0.00 0.00 0.00 0.00 0.00 0.00 0.00 0.00 0.00 0.00 0.00 0.00 0.00 0.00 0.00 0.00 0.00 0.00 0.00 0.00 0.00
1.05 1.88 1.66 1.49 1.46 1.44 2.24 2.23 1.66 1.16 0.55 0.21 0.01 0.00 0.00 0.00 0.00 0.00 0.00 0.00 0.00 0.00 0.00 0.00 0.00 0.00 0.00 0.00 0.00 0.00 0.00 0.00 0.00 0.00 0.00 0.00 0.00 0.00 0.00 0.00 0.00 0.00 0.00
1.61 1.75 1.47 1.85 1.61 1.59 1.73 2.03 1.34 1.00 0.67 0.34 0.06 0.00 0.00 0.00 0.00 0.00 0.00 0.00 0.00 0.00 0.00 0.00 0.00 0.00 0.00 0.00 0.00 0.00 0.00 0.00 0.00 0.00 0.00 0.00 0.00 0.00 0.00 0.00 0.00 0.00 0.00
0.77 0.35 0.41 1.01 1.31 1.15 0.97 1.11 1.34 0.98 0.62 0.34 0.12 0.01 0.00 0.00 0.00 0.00 0.00 0.00 0.00 0.00 0.00 0.00 0.00 0.00 0.00 0.00 0.00 0.00 0.00 0.00 0.00 0.00 0.00 0.00 0.00 0.00 0.00 0.00 0.00 0.00 0.00
0.65 0.41 0.33 0.18 0.39 0.45 0.50 0.69 0.78 0.88 0.86 0.64 0.23 0.07 0.01 0.00 0.00 0.00 0.00 0.00 0.00 0.00 0.00 0.00 0.00 0.00 0.00 0.00 0.00 0.00 0.00 0.00 0.00 0.00 0.00 0.00 0.00 0.00 0.00 0.00 0.00 0.00 0.00
0.18 0.16 0.11 0.16 0.22 0.26 0.20 0.15 0.30 0.43 0.50 0.66 0.58 0.34 0.09 0.02 0.00 0.00 0.00 0.00 0.00 0.00 0.00 0.00 0.00 0.00 0.00 0.00 0.00 0.00 0.00 0.00 0.00 0.00 0.00 0.00 0.00 0.00 0.00 0.00 0.00 0.00 0.00
0.12 0.11 0.12 0.09 0.14 0.26 0.31 0.36 0.27 0.33 0.34 0.37 0.49 0.59 0.48 0.25 0.07 0.01 0.00 0.00 0.00 0.00 0.00 0.00 0.00 0.00 0.00 0.00 0.00 0.00 0.00 0.00 0.00 0.00 0.00 0.00 0.00 0.00 0.00 0.00 0.00 0.00 0.00
0.00 0.01 0.02 0.02 0.03 0.10 0.20 0.18 0.38 0.30 0.21 0.32 0.44 0.44 0.34 0.29 0.25 0.15 0.05 0.02 0.00 0.00 0.00 0.00 0.00 0.00 0.00 0.00 0.00 0.00 0.00 0.00 0.00 0.00 0.00 0.00 0.00 0.00 0.00 0.00 0.00 0.00 0.00
0.00 0.00 0.00 0.00 0.00 0.02 0.07 0.11 0.14 0.29 0.31 0.38 0.36 0.39 0.49 0.42 0.32 0.27 0.20 0.13 0.08 0.03 0.00 0.00 0.00 0.00 0.00 0.00 0.00 0.00 0.00 0.00 0.00 0.00 0.00 0.00 0.00 0.00 0.00 0.00 0.00 0.00 0.00
0.00 0.00 0.00 0.00 0.00 0.00 0.01 0.02 0.04 0.06 0.11 0.14 0.23 0.25 0.31 0.41 0.40 0.32 0.21 0.19 0.21 0.23 0.18 0.09 0.02 0.00 0.00 0.00 0.00 0.00 0.00 0.00 0.00 0.00 0.00 0.00 0.00 0.00 0.00 0.00 0.00 0.00 0.00
0.00 0.00 0.00 0.00 0.00 0.00 0.00 0.00 0.00 0.00 0.00 0.01 0.02 0.03 0.04 0.07 0.16 0.27 0.28 0.25 0.26 0.30 0.29 0.26 0.23 0.16 0.10 0.04 0.02 0.01 0.01 0.01 0.00 0.00 0.00 0.00 0.00 0.01 0.01 0.01 0.02 0.02 0.03
0.00 0.00 0.00 0.00 0.00 0.00 0.00 0.00 0.00 0.00 0.00 0.00 0.00 0.01 0.04 0.05 0.07 0.08 0.11 0.14 0.14 0.17 0.22 0.32 0.37 0.33 0.31 0.30 0.24 0.14 0.07 0.04 0.03 0.03 0.04 0.06 0.07 0.09 0.08 0.08 0.08 0.08 0.07
0.00 0.00 0.00 0.00 0.00 0.00 0.00 0.00 0.00 0.00 0.00 0.00 0.00 0.00 0.02 0.03 0.06 0.09 0.12 0.18 0.26 0.30 0.33 0.38 0.39 0.38 0.40 0.46 0.47 0.46 0.42 0.37 0.33 0.27 0.24 0.20 0.17 0.15 0.12 0.11 0.09 0.08 0.08
0.00 0.00 0.00 0.00 0.00 0.00 0.00 0.00 0.00 0.00 0.00 0.00 0.00 0.00 0.00 0.01 0.01 0.07 0.18 0.29 0.40 0.50 0.53 0.56 0.58 0.54 0.51 0.51 0.48 0.43 0.38 0.33 0.29 0.26 0.23 0.22 0.20 0.19 0.18 0.18 0.15 0.12 0.11
0.00 0.00 0.00 0.00 0.00 0.00 0.00 0.00 0.00 0.00 0.00 0.00 0.00 0.00 0.00 0.00 0.01 0.02 0.05 0.18 0.36 0.56 0.73 0.91 0.93 0.78 0.68 0.62 0.54 0.52 0.54 0.52 0.48 0.43 0.38 0.33 0.31 0.28 0.23 0.19 0.14 0.09 0.09
0.00 0.00 0.00 0.00 0.00 0.00 0.00 0.00 0.00 0.00 0.00 0.00 0.00 0.00 0.00 0.01 0.01 0.02 0.04 0.08 0.16 0.27 0.38 0.52 0.61 0.65 0.69 0.77 0.77 0.70 0.66 0.60 0.53 0.47 0.39 0.30 0.23 0.16 0.12 0.08 0.06 0.06 0.05
0.00 0.00 0.00 0.00 0.00 0.00 0.00 0.00 0.00 0.00 0.00 0.00 0.00 0.00 0.00 0.01 0.02 0.04 0.06 0.06 0.08 0.12 0.16 0.21 0.25 0.28 0.31 0.46 0.43 0.39 0.32 0.30 0.27 0.23 0.20 0.17 0.13 0.13 0.06 0.06 0.06 0.04 0.02
0.00 0.00 0.00 0.00 0.00 0.00 0.00 0.00 0.00 0.00 0.00 0.00 0.00 0.00 0.01 0.02 0.03 0.05 0.06 0.08 0.09 0.11 0.12 0.13 0.13 0.15 0.17 0.27 0.21 0.19 0.14 0.12 0.13 0.11 0.09 0.08 0.07 0.07 0.06 0.04 0.05 0.04 0.03
0.00 0.00 0.00 0.00 0.00 0.00 0.00 0.00 0.00 0.00 0.00 0.00 0.00 0.01 0.01 0.02 0.04 0.08 0.10 0.12 0.14 0.17 0.16 0.15 0.16 0.17 0.20 0.30 0.18 0.14 0.07 0.08 0.07 0.07 0.06 0.07 0.06 0.11 0.13 0.05 0.03 0.04 0.05
0.00 0.00 0.00 0.00 0.00 0.00 0.00 0.00 0.00 0.00 0.00 0.00 0.00 0.00 0.01 0.01 0.03 0.06 0.11 0.16 0.19 0.25 0.27 0.26 0.23 0.24 0.20 0.25 0.17 0.12 0.08 0.09 0.08 0.08 0.06 0.13 0.06 0.12 0.11 0.04 0.02 0.03 0.02
0.00 0.00 0.00 0.00 0.00 0.00 0.00 0.00 0.00 0.00 0.00 0.00 0.00 0.00 0.00 0.02 0.03 0.03 0.03 0.08 0.13 0.15 0.15 0.16 0.20 0.22 0.23 0.22 0.23 0.15 0.11 0.07 0.07 0.07 0.06 0.06 0.11 0.09 0.07 0.03 0.02 0.03 0.04
0.00 0.00 0.00 0.00 0.00 0.00 0.00 0.00 0.00 0.00 0.00 0.00 0.00 0.00 0.00 0.00 0.01 0.03 0.06 0.09 0.10 0.11 0.14 0.15 0.16 0.15 0.14 0.20 0.18 0.12 0.12 0.13 0.10 0.07 0.05 0.05 0.14 0.10 0.09 0.08 0.06 0.12 0.13
0.00 0.00 0.00 0.00 0.00 0.00 0.00 0.00 0.00 0.00 0.00 0.00 0.00 0.00 0.01 0.02 0.03 0.03 0.05 0.10 0.14 0.16 0.17 0.16 0.16 0.18 0.17 0.17 0.19 0.13 0.17 0.18 0.12 0.09 0.15 0.19 0.21 0.18 0.19 0.17 0.15 0.19 0.16
0.00 0.00 0.00 0.00 0.00 0.00 0.00 0.00 0.00 0.00 0.01 0.03 0.03 0.03 0.05 0.05 0.05 0.10 0.16 0.18 0.20 0.22 0.21 0.23 0.23 0.22 0.24 0.24 0.19 0.14 0.16 0.20 0.18 0.19 0.25 0.28 0.25 0.26 0.25 0.20 0.20 0.19 0.10
0.00 0.00 0.00 0.00 0.00 0.00 0.00 0.00 0.00 0.00 0.03 0.04 0.08 0.10 0.10 0.12 0.13 0.17 0.20 0.28 0.33 0.29 0.29 0.29 0.29 0.31 0.31 0.27 0.22 0.15 0.15 0.17 0.20 0.30 0.31 0.38 0.33 0.29 0.30 0.23 0.20 0.18 0.12
0.00 0.00 0.00 0.00 0.00 0.00 0.00 0.00 0.00 0.01 0.04 0.09 0.11 0.13 0.19 0.21 0.27 0.34 0.45 0.44 0.37 0.37 0.39 0.40 0.39 0.37 0.35 0.39 0.34 0.26 0.26 0.28 0.38 0.50 0.46 0.35 0.26 0.21 0.20 0.18 0.20 0.17 0.14